Simultaneous Nadir Overpasses (SNOs) Predictions

Prediction of SNOs between GOES-17 and TERRA Satellite Orbit:

Table of predicted SNOs for the next 14.0 days since TLE Epoch: 7/30/2022
Index Date Time (GOES-17) GOES-17 Lat,Lon TERRA Lat,Lon Distance(km) Time Diff (sec)
1 07/30/2022 07:27:24 0.02,-137.30 -0.12,-137.84 62.98 80
2 08/01/2022 07:17:51 0.02,-137.30 0.52,-134.90 272.60 80
3 08/01/2022 19:36:25 -0.03,-137.30 0.57,-140.06 314.17 80
4 08/03/2022 19:26:53 -0.03,-137.30 -0.07,-137.11 20.81 80
5 08/05/2022 19:14:40 -0.02,-137.29 -0.71,-134.17 354.99 80
6 08/06/2022 07:33:23 0.03,-137.28 -0.39,-139.37 236.41 80
7 08/08/2022 07:23:49 0.02,-137.26 0.19,-136.41 96.42 80
8 08/08/2022 19:42:24 -0.02,-137.25 0.90,-141.57 491.19 80
9 08/10/2022 07:11:37 0.02,-137.23 0.83,-133.47 428.21 80
10 08/10/2022 19:30:11 -0.03,-137.22 0.26,-138.63 159.60 80
11 08/12/2022 19:20:37 -0.03,-137.19 -0.32,-135.67 171.88 80
